Time,TemperatureF,DewpointF,PressureIn,WindDirection,WindDirectionDegrees,WindSpeedMPH,WindSpeedGustMPH,Humidity,HourlyPrecipIn,Conditions,Clouds,dailyrainin,SoftwareType,DateUTC
2013-03-02 00:21:00,70.0,22.0,30.19,North,360,1.0,-999.0,16,0.00,,,-99.99,,2013-03-02 08:21:00,
2013-03-02 00:32:00,70.0,22.0,30.19,North,360,1.0,-999.0,16,0.00,,,-99.99,,2013-03-02 08:32:00,
2013-03-02 01:21:00,69.0,24.0,30.18,North,0,0.0,-999.0,18,0.00,,,-99.99,,2013-03-02 09:21:00,
2013-03-02 01:31:00,69.0,24.0,30.18,North,0,0.0,-999.0,18,0.00,,,-99.99,,2013-03-02 09:31:00,
2013-03-02 02:21:00,68.0,24.0,30.17,East,100,1.0,-999.0,19,0.00,,,-99.99,,2013-03-02 10:21:00,
2013-03-02 02:31:00,68.0,24.0,30.17,East,100,1.0,-999.0,19,0.00,,,-99.99,,2013-03-02 10:31:00,
2013-03-02 03:21:00,69.0,25.0,30.15,East,90,3.0,-999.0,19,0.00,,,-99.99,,2013-03-02 11:21:00,
2013-03-02 03:32:00,69.0,25.0,30.15,East,90,3.0,-999.0,19,0.00,,,-99.99,,2013-03-02 11:32:00,
2013-03-02 04:21:00,69.0,25.0,30.15,East,100,3.0,-999.0,19,0.00,,,-99.99,,2013-03-02 12:21:00,
2013-03-02 04:32:00,69.0,25.0,30.15,East,100,3.0,-999.0,19,0.00,,,-99.99,,2013-03-02 12:32:00,
2013-03-02 05:21:00,67.0,25.0,30.16,East,100,1.0,-999.0,20,0.00,,,-99.99,,2013-03-02 13:21:00,
2013-03-02 05:31:00,67.0,25.0,30.16,East,100,1.0,-999.0,20,0.00,,,-99.99,,2013-03-02 13:31:00,
2013-03-02 06:21:00,68.0,24.0,30.16,East,100,2.0,-999.0,19,0.00,,,-99.99,,2013-03-02 14:21:00,
2013-03-02 06:32:00,68.0,24.0,30.16,East,100,2.0,-999.0,19,0.00,,,-99.99,,2013-03-02 14:32:00,
2013-03-02 07:21:00,67.0,25.0,30.17,East,100,1.0,-999.0,20,0.00,,,-99.99,,2013-03-02 15:21:00,
2013-03-02 07:31:00,67.0,25.0,30.17,East,100,1.0,-999.0,20,0.00,,,-99.99,,2013-03-02 15:31:00,
2013-03-02 08:21:00,71.0,29.0,30.18,North,0,0.0,-999.0,21,0.00,,,-99.99,,2013-03-02 16:21:00,
2013-03-02 08:31:00,71.0,29.0,30.18,North,0,0.0,-999.0,21,0.00,,,-99.99,,2013-03-02 16:31:00,
2013-03-02 09:21:00,78.0,27.0,30.18,East,100,3.0,-999.0,15,0.00,,,-99.99,,2013-03-02 17:21:00,
2013-03-02 09:32:00,78.0,27.0,30.18,East,100,3.0,-999.0,15,0.00,,,-99.99,,2013-03-02 17:32:00,
2013-03-02 10:22:00,74.0,34.0,30.18,SE,140,1.0,-999.0,23,0.00,,,-99.99,,2013-03-02 18:22:00,
2013-03-02 10:32:00,74.0,34.0,30.18,SE,140,1.0,-999.0,23,0.00,,,-99.99,,2013-03-02 18:32:00,
2013-03-02 10:42:00,74.0,34.0,30.18,SE,140,1.0,-999.0,23,0.00,,,-99.99,,2013-03-02 18:42:00,
2013-03-02 10:51:00,74.0,34.0,30.18,SE,140,1.0,-999.0,23,0.00,,,-99.99,,2013-03-02 18:51:00,
2013-03-02 11:21:00,72.0,30.0,30.18,West,270,3.0,-999.0,21,0.00,,,-99.99,,2013-03-02 19:21:00,
2013-03-02 11:31:00,72.0,30.0,30.18,West,270,3.0,-999.0,21,0.00,,,-99.99,,2013-03-02 19:31:00,
2013-03-02 11:42:00,72.0,30.0,30.18,West,270,3.0,-999.0,21,0.00,,,-99.99,,2013-03-02 19:42:00,
2013-03-02 11:52:00,72.0,30.0,30.18,West,270,3.0,-999.0,21,0.00,,,-99.99,,2013-03-02 19:52:00,
2013-03-02 12:21:00,75.0,29.0,30.16,West,280,4.0,-999.0,18,0.00,,,-99.99,,2013-03-02 20:21:00,
2013-03-02 12:32:00,75.0,29.0,30.16,West,280,4.0,-999.0,18,0.00,,,-99.99,,2013-03-02 20:32:00,
2013-03-02 12:42:00,75.0,29.0,30.16,West,280,4.0,-999.0,18,0.00,,,-99.99,,2013-03-02 20:42:00,
2013-03-02 12:52:00,75.0,29.0,30.16,West,280,4.0,-999.0,18,0.00,,,-99.99,,2013-03-02 20:52:00,
2013-03-02 13:22:00,76.0,28.0,30.13,West,280,5.0,-999.0,17,0.00,,,-99.99,,2013-03-02 21:22:00,
2013-03-02 13:31:00,76.0,28.0,30.13,West,280,5.0,-999.0,17,0.00,,,-99.99,,2013-03-02 21:31:00,
2013-03-02 13:42:00,76.0,28.0,30.13,West,280,5.0,-999.0,17,0.00,,,-99.99,,2013-03-02 21:42:00,
2013-03-02 13:52:00,76.0,28.0,30.13,West,280,5.0,-999.0,17,0.00,,,-99.99,,2013-03-02 21:52:00,
2013-03-02 14:21:00,75.0,29.0,30.11,West,270,5.0,-999.0,18,0.00,,,-99.99,,2013-03-02 22:21:00,
2013-03-02 14:32:00,75.0,29.0,30.11,West,270,5.0,-999.0,18,0.00,,,-99.99,,2013-03-02 22:32:00,
2013-03-02 14:42:00,75.0,29.0,30.11,West,270,5.0,-999.0,18,0.00,,,-99.99,,2013-03-02 22:42:00,
2013-03-02 14:51:00,75.0,29.0,30.11,West,270,5.0,-999.0,18,0.00,,,-99.99,,2013-03-02 22:51:00,
2013-03-02 15:21:00,75.0,30.0,30.09,WSW,250,4.0,-999.0,19,0.00,,,-99.99,,2013-03-02 23:21:00,
2013-03-02 15:32:00,75.0,30.0,30.09,WSW,250,4.0,-999.0,19,0.00,,,-99.99,,2013-03-02 23:32:00,
2013-03-02 15:42:00,75.0,30.0,30.09,WSW,250,4.0,-999.0,19,0.00,,,-99.99,,2013-03-02 23:42:00,
2013-03-02 15:52:00,75.0,30.0,30.09,WSW,250,4.0,-999.0,19,0.00,,,-99.99,,2013-03-02 23:52:00,
2013-03-02 16:22:00,75.0,30.0,30.07,West,260,4.0,-999.0,19,0.00,,,-99.99,,2013-03-03 00:22:00,
2013-03-02 16:32:00,75.0,30.0,30.07,West,260,4.0,-999.0,19,0.00,,,-99.99,,2013-03-03 00:32:00,
2013-03-02 16:42:00,75.0,30.0,30.07,West,260,4.0,-999.0,19,0.00,,,-99.99,,2013-03-03 00:42:00,
2013-03-02 16:52:00,75.0,30.0,30.07,West,260,4.0,-999.0,19,0.00,,,-99.99,,2013-03-03 00:52:00,
2013-03-02 17:21:00,73.0,28.0,30.06,West,280,6.0,-999.0,19,0.00,,,-99.99,,2013-03-03 01:21:00,
2013-03-02 17:31:00,73.0,28.0,30.06,West,280,6.0,-999.0,19,0.00,,,-99.99,,2013-03-03 01:31:00,
2013-03-02 17:41:00,73.0,28.0,30.06,West,280,6.0,-999.0,19,0.00,,,-99.99,,2013-03-03 01:41:00,
2013-03-02 17:52:00,73.0,28.0,30.06,West,280,6.0,-999.0,19,0.00,,,-99.99,,2013-03-03 01:52:00,
2013-03-02 18:21:00,68.0,24.0,30.07,West,280,6.0,-999.0,19,0.00,,,-99.99,,2013-03-03 02:21:00,
2013-03-02 18:31:00,68.0,24.0,30.07,West,280,6.0,-999.0,19,0.00,,,-99.99,,2013-03-03 02:31:00,
2013-03-02 18:41:00,68.0,24.0,30.07,West,280,6.0,-999.0,19,0.00,,,-99.99,,2013-03-03 02:41:00,
2013-03-02 18:52:00,68.0,24.0,30.07,West,280,6.0,-999.0,19,0.00,,,-99.99,,2013-03-03 02:52:00,
2013-03-02 19:21:00,67.0,25.0,30.08,West,280,2.0,-999.0,20,0.00,,,-99.99,,2013-03-03 03:21:00,
2013-03-02 19:31:00,67.0,25.0,30.08,West,280,2.0,-999.0,20,0.00,,,-99.99,,2013-03-03 03:31:00,
2013-03-02 19:41:00,67.0,25.0,30.08,West,280,2.0,-999.0,20,0.00,,,-99.99,,2013-03-03 03:41:00,
2013-03-02 19:51:00,67.0,25.0,30.08,West,280,2.0,-999.0,20,0.00,,,-99.99,,2013-03-03 03:51:00,
2013-03-02 20:21:00,69.0,19.0,30.09,WNW,290,1.0,-999.0,15,0.00,,,-99.99,,2013-03-03 04:21:00,
2013-03-02 20:31:00,69.0,19.0,30.09,WNW,290,1.0,-999.0,15,0.00,,,-99.99,,2013-03-03 04:31:00,
2013-03-02 21:22:00,66.0,30.0,30.09,North,0,0.0,-999.0,26,0.00,,,-99.99,,2013-03-03 05:22:00,
2013-03-02 21:32:00,66.0,30.0,30.09,North,0,0.0,-999.0,26,0.00,,,-99.99,,2013-03-03 05:32:00,
2013-03-02 22:21:00,66.0,26.0,30.10,North,0,0.0,-999.0,22,0.00,,,-99.99,,2013-03-03 06:21:00,
2013-03-02 22:31:00,66.0,26.0,30.10,North,0,0.0,-999.0,22,0.00,,,-99.99,,2013-03-03 06:31:00,
2013-03-02 23:21:00,63.0,28.0,30.09,North,0,0.0,-999.0,26,0.00,,,-99.99,,2013-03-03 07:21:00,
2013-03-02 23:31:00,63.0,28.0,30.09,North,0,0.0,-999.0,26,0.00,,,-99.99,,2013-03-03 07:31:00,